Simultaneous Nadir Overpasses (SNOs) Predictions

Prediction of SNOs between GOES-16 and METOP-B Satellite Orbit:

Table of predicted SNOs for the next 14.0 days since TLE Epoch: 12/18/2021
Index Date Time (GOES-16) GOES-16 Lat,Lon METOP-B Lat,Lon Distance(km) Time Diff (sec)
1 12/18/2021 14:41:36 -0.04, -75.21 0.40, -77.31 238.54 80
2 12/19/2021 14:18:16 -0.04, -75.20 -0.67, -72.30 330.14 80
3 12/21/2021 02:39:56 0.03, -75.18 -0.32, -76.90 196.01 80
4 12/22/2021 02:16:36 0.03, -75.17 0.74, -71.90 372.87 80
5 12/23/2021 14:35:27 -0.03, -75.19 0.27, -76.46 144.88 80
6 12/24/2021 14:17:27 -0.03, -75.19 -0.86, -71.47 424.49 80
7 12/26/2021 02:36:27 0.02, -75.18 -0.19, -76.06 100.49 80
8 12/27/2021 02:13:07 0.03, -75.18 0.94, -71.06 469.12 80
9 12/28/2021 14:31:59 -0.02, -75.21 0.07, -75.63 47.69 80
10 12/31/2021 02:32:58 0.02, -75.21 0.01, -75.22 2.29 80
